DELTA 1 DEB, 10759

Orbit data source: Space-Track

DELTA 1 DEB, 10759 is space debris in SSO originally from a launch on Thu, 29 Jul 1976 UTC launched from the Air Force Western Test Range (AFWTR). Debris objects in space refer to the collection of defunct objects orbiting the Earth. Examples of debris include non-operational satellites, rocket bodies, and fragments generated from explosions, collisions, or faulty payload assembly.

Loading next visibility...
Identifier
10759, 1976-077BG
Orbit
SSO
Country
Flag of USUS
Related business
Manufacturer
Unknown
Mission
Spacecraft
Bus & Motor
Unknown
Mass
Unknown
Launch date (UTC)
1976-07-29 (50 years ago)
Launch vehicle
Unknown
Launch site
Air Force Western Test Range (AFWTR)
Object type
Payload
Rocket body
Debris
Shape & HBR
Unknown shape, 0.2 m
Radar Cross Section
Small (<0.1 m²)

Expand to show TLE details & history
Last TLE update: 23 hours ago

TLE from 23 hours ago
0 DELTA 1 DEB
1 10759U 76077BG  26104.22038544  .00000005  00000-0  37637-3 0  9994
2 10759 102.4841   3.9435 0070625 131.4695  23.0575 12.42061553243658
Epoch: 2026-04-14T05:17Z
TLE epoch observation values (Epoch: 2026-04-14T05:17:21.302Z)
Latitude
24.54628°
Longitude
-92.02029°
Altitude
1,449.379 km
Speed
7.163 km/s
True Right ascension
12h 38m 52s
True Declination
24° 25' 41"
Sunlit
Object was in full shadow at epoch
Visualization orbit readout
Latitude
Unknown
Longitude
Unknown
Altitude
Unknown
Speed
Unknown
Apparent Right ascension
Unknown
Apparent Declination
Unknown
Sunlit
N/A
Visualization observer readout
Local Sidereal Time
10:29:48
Azimuth
Unknown
Elevation
Unknown
Doppler factor
Unknown
Orbital elements
Apogee altitude
1,551.085 km
Perigee altitude
1,439.87 km
Semi-major axis
7,873.614 km
Eccentricity
0.00706
Inclination
102.4841°
RAAN
3.9435°
Arg. of periapsis
131.4695°
True anomaly
23.37706°
Mean anomaly
23.0575°
Eccentric anomaly
23.21702°
Mean motion
3.10658 °/min
Orbital period
115.88 mins
BSTAR
0.00037637
Loading maneuver chart data...
Computing Atmospheric mass density...
Loading historical data...
Loading historical data...
Loading historical data...
Loading historical data...
Loading historical data...
Loading historical data...
Loading historical data...

Documentation

Showing up to 5 results
|